{"data":{"norad_id":65739,"intl_designator":"2025-216F","name":"STARLINK-35106","alt_names":[],"object_type":"PAYLOAD","status":"ACTIVE","operator":null,"country":"US","launch_date":"2025-09-25","launch_site_code":"AFETR","launch_vehicle":null,"mission":null,"orbit_class":"UNKNOWN","rcs_meters":null,"size_class":null,"mass_kg":null,"dimensions":null,"purposes":["comms"],"wikipedia_slug":null,"has_3d_model":false,"image_url":null,"decayed_at":null,"tle_current":{"epoch":"2026-05-24T20:30:58.881024Z","epoch_age_seconds":87644,"freshness":"FRESH","line1":"1 65739U 25216F   26144.85484816  .00017617  00000+0  60532-3 0  9997","line2":"2 65739  53.1614 339.1942 0000812  90.7853 269.3241 15.30210402 38170","mean_motion":15.30210402,"eccentricity":8.12e-5,"inclination_deg":53.1614,"raan_deg":339.1942,"arg_perigee_deg":90.7853,"mean_anomaly_deg":269.3241,"bstar":0.00060532,"rev_number":3817,"period_min":94.104706001077,"perigee_km":474.62752143214,"apogee_km":475.74050076434,"semimajor_km":6853.3210110982,"source":"CELESTRAK","updated_at":"2026-05-25T13:38:20.929284Z"}}}